Location: Gebenbach
(49.5378°N, 11.8735°E)
Time: 03:31:21
(UTC+00:00)

SJ-11-01 - Pass Details

Date: 29 October 2020
Orbit: 685 x 700 km, 98.0° (Epoch: 24 November)

Event Time Altitude Azimuth Distance (km) Brightness Sun altitude
Exits shadow 17:35:49 12° 144° (SE) 2,000 6.3 -16.8°
Maximum altitude 17:39:59 51° 70° (ENE) 866 4.4 -17.5°
Drops below altitude 10° 17:44:32 10° 355° (N) 2,151 6.9 -18.2°
Sets 17:46:50 0° 351° (N) 3,073 7.8 -18.6°
